• In Lithuania
  • List of Countries
  • For 7 days
  • Water Temperature
  • Satellite Maps
  • Weather Map
  • Weather Widgets
  • user-avatar
    Login

    Hourly Weather Lleida

    Today, 21 November, Tuesday

    Time Temperature Precipitation Wind Pressure Humidity
    00:00 +9°C° 0 mm 1 mps 751 mmHg 56%
    01:00 +9°C° 0 mm 1 mps 750 mmHg 57%
    02:00 +9°C° 0 mm 1 mps 750 mmHg 58%
    03:00 +9°C° 0 mm 1 mps 750 mmHg 58%
    04:00 +9°C° 0 mm 1 mps 750 mmHg 59%
    05:00 +8°C° 0 mm 1 mps 750 mmHg 60%
    06:00 +8°C° 0 mm 1 mps 750 mmHg 61%
    07:00 +10°C° 0 mm 1 mps 750 mmHg 56%
    08:00 +12°C° 0 mm 1 mps 750 mmHg 51%
    09:00 +13°C° 0 mm 1 mps 750 mmHg 46%
    10:00 +15°C° 0 mm 1 mps 750 mmHg 42%
    11:00 +16°C° 0 mm 1 mps 750 mmHg 38%
    12:00 +19°C° 0 mm 1 mps 749 mmHg 34%
    13:00 +19°C° 0 mm 1 mps 749 mmHg 34%
    14:00 +19°C° 0 mm 1 mps 749 mmHg 34%
    15:00 +19°C° 0 mm 1 mps 748 mmHg 34%
    16:00 +16°C° 0 mm 1 mps 748 mmHg 39%
    17:00 +14°C° 0 mm 1 mps 748 mmHg 44%
    18:00 +11°C° 0 mm 0 mps 748 mmHg 49%
    19:00 +12°C° 0 mm 1 mps 748 mmHg 50%
    20:00 +12°C° 0 mm 1 mps 748 mmHg 51%
    21:00 +11°C° 0 mm 1 mps 749 mmHg 51%
    22:00 +11°C° 0 mm 1 mps 748 mmHg 52%
    23:00 +11°C° 0 mm 1 mps 748 mmHg 53%

    Tomorrow, 22 November, Wednesday

    Time Temperature Precipitation Wind Pressure Humidity
    00:00 +11°C° 0 mm 1 mps 748 mmHg 54%
    01:00 +10°C° 0 mm 1 mps 748 mmHg 54%
    02:00 +10°C° 0 mm 1 mps 747 mmHg 55%
    03:00 +10°C° 0 mm 1 mps 747 mmHg 55%
    04:00 +10°C° 0 mm 1 mps 747 mmHg 56%
    05:00 +9°C° 0 mm 1 mps 747 mmHg 57%
    06:00 +9°C° 0 mm 1 mps 746 mmHg 57%
    07:00 +11°C° 0 mm 1 mps 746 mmHg 53%
    08:00 +12°C° 0 mm 1 mps 746 mmHg 49%
    09:00 +14°C° 0 mm 1 mps 747 mmHg 44%
    10:00 +16°C° 0 mm 1 mps 746 mmHg 40%
    11:00 +18°C° 0 mm 1 mps 746 mmHg 37%
    12:00 +20°C° 0 mm 1 mps 745 mmHg 33%
    13:00 +20°C° 0 mm 1 mps 745 mmHg 34%
    14:00 +20°C° 0 mm 1 mps 745 mmHg 36%
    15:00 +20°C° 0 mm 1 mps 745 mmHg 38%
    16:00 +18°C° 0 mm 1 mps 745 mmHg 45%
    17:00 +15°C° 0 mm 1 mps 745 mmHg 52%
    18:00 +13°C° 0 mm 1 mps 745 mmHg 60%
    19:00 +13°C° 0 mm 1 mps 745 mmHg 61%
    20:00 +12°C° 0 mm 1 mps 746 mmHg 63%
    21:00 +12°C° 0 mm 1 mps 746 mmHg 64%
    22:00 +11°C° 0 mm 1 mps 746 mmHg 63%
    23:00 +11°C° 0 mm 1 mps 746 mmHg 61%

    Day after tomorrow, 23 November, Thursday

    Time Temperature Precipitation Wind Pressure Humidity
    00:00 +11°C° 0 mm 1 mps 746 mmHg 60%
    01:00 +11°C° 0 mm 1 mps 746 mmHg 58%
    02:00 +11°C° 0 mm 1 mps 746 mmHg 56%
    03:00 +11°C° 0 mm 1 mps 746 mmHg 54%
    04:00 +11°C° 0 mm 1 mps 746 mmHg 52%
    05:00 +11°C° 0 mm 1 mps 746 mmHg 50%
    06:00 +11°C° 0 mm 1 mps 746 mmHg 47%
    07:00 +12°C° 0 mm 1 mps 747 mmHg 45%
    08:00 +14°C° 0 mm 1 mps 747 mmHg 42%
    09:00 +15°C° 0 mm 1 mps 748 mmHg 40%
    10:00 +18°C° 0 mm 1 mps 747 mmHg 37%
    11:00 +19°C° 0 mm 1 mps 747 mmHg 35%
    12:00 +20°C° 0 mm 2 mps 747 mmHg 33%
    13:00 +20°C° 0 mm 2 mps 747 mmHg 34%
    14:00 +21°C° 0 mm 1 mps 747 mmHg 36%
    15:00 +21°C° 0 mm 1 mps 747 mmHg 37%
    16:00 +19°C° 0 mm 1 mps 747 mmHg 41%
    17:00 +16°C° 0 mm 1 mps 748 mmHg 45%
    18:00 +15°C° 0 mm 1 mps 748 mmHg 50%
    19:00 +14°C° 0 mm 1 mps 748 mmHg 51%
    20:00 +14°C° 0 mm 1 mps 749 mmHg 52%
    21:00 +14°C° 0 mm 1 mps 749 mmHg 53%
    22:00 +13°C° 0 mm 1 mps 749 mmHg 54%
    23:00 +13°C° 0 mm 1 mps 749 mmHg 55%

    24 November, Friday

    Time Temperature Precipitation Wind Pressure Humidity
    00:00 +13°C° 0 mm 1 mps 749 mmHg 55%
    01:00 +13°C° 0 mm 1 mps 749 mmHg 56%
    02:00 +12°C° 0 mm 1 mps 748 mmHg 56%
    03:00 +12°C° 0 mm 1 mps 748 mmHg 57%
    04:00 +12°C° 0 mm 1 mps 748 mmHg 56%
    05:00 +12°C° 0 mm 1 mps 748 mmHg 56%
    06:00 +12°C° 0 mm 1 mps 748 mmHg 56%
    07:00 +13°C° 0 mm 1 mps 749 mmHg 53%
    08:00 +14°C° 0 mm 1 mps 749 mmHg 49%
    09:00 +16°C° 0 mm 1 mps 749 mmHg 45%
    10:00 +19°C° 0 mm 1 mps 749 mmHg 41%
    11:00 +20°C° 0 mm 1 mps 748 mmHg 37%
    12:00 +22°C° 0 mm 1 mps 748 mmHg 34%
    13:00 +21°C° 0 mm 2 mps 748 mmHg 35%
    14:00 +21°C° 0 mm 2 mps 748 mmHg 36%
    15:00 +21°C° 0 mm 2 mps 747 mmHg 38%
    16:00 +19°C° 0 mm 2 mps 747 mmHg 44%
    17:00 +17°C° 0 mm 2 mps 748 mmHg 50%
    18:00 +15°C° 0 mm 2 mps 748 mmHg 57%
    19:00 +15°C° 0 mm 2 mps 748 mmHg 59%
    20:00 +14°C° 0 mm 2 mps 748 mmHg 61%
    21:00 +14°C° 0 mm 2 mps 748 mmHg 64%
    22:00 +13°C° 0 mm 2 mps 748 mmHg 65%
    23:00 +13°C° 0 mm 2 mps 748 mmHg 66%

    25 November, Saturday

    Time Temperature Precipitation Wind Pressure Humidity
    00:00 +13°C° 0 mm 2 mps 748 mmHg 67%
    01:00 +13°C° 0 mm 2 mps 748 mmHg 68%
    02:00 +12°C° 0 mm 2 mps 748 mmHg 68%
    03:00 +12°C° 0 mm 2 mps 747 mmHg 68%
    04:00 +12°C° 0 mm 2 mps 747 mmHg 68%
    05:00 +12°C° 0 mm 2 mps 747 mmHg 68%
    06:00 +12°C° 0 mm 2 mps 747 mmHg 68%
    07:00 +13°C° 0 mm 1 mps 748 mmHg 64%
    08:00 +14°C° 0 mm 1 mps 748 mmHg 60%
    09:00 +16°C° 0 mm 1 mps 749 mmHg 56%
    10:00 +18°C° 0 mm 1 mps 749 mmHg 51%
    11:00 +20°C° 0 mm 1 mps 749 mmHg 45%
    12:00 +21°C° 0 mm 1 mps 749 mmHg 40%
    13:00 +21°C° 0 mm 1 mps 749 mmHg 39%
    14:00 +20°C° 0 mm 2 mps 749 mmHg 37%
    15:00 +20°C° 0 mm 2 mps 749 mmHg 36%
    16:00 +19°C° 0 mm 2 mps 750 mmHg 40%
    17:00 +17°C° 0 mm 2 mps 750 mmHg 43%
    18:00 +16°C° 0 mm 2 mps 751 mmHg 46%
    19:00 +15°C° 0 mm 2 mps 751 mmHg 51%
    20:00 +14°C° 0 mm 2 mps 752 mmHg 55%
    21:00 +14°C° 0 mm 2 mps 752 mmHg 59%
    22:00 +14°C° 0.1 mm 2 mps 753 mmHg 62%
    23:00 +13°C° 0.1 mm 1 mps 753 mmHg 65%

    26 November, Sunday

    Time Temperature Precipitation Wind Pressure Humidity
    00:00 +13°C° 0.1 mm 1 mps 753 mmHg 68%
    01:00 +13°C° 0.2 mm 1 mps 753 mmHg 72%
    02:00 +12°C° 0.2 mm 1 mps 753 mmHg 76%
    03:00 +12°C° 0.2 mm 1 mps 753 mmHg 80%
    04:00 +12°C° 0.2 mm 1 mps 753 mmHg 82%
    05:00 +12°C° 0.2 mm 1 mps 754 mmHg 83%
    06:00 +11°C° 0.2 mm 1 mps 754 mmHg 85%
    07:00 +12°C° 0.1 mm 1 mps 754 mmHg 83%
    08:00 +12°C° 0.1 mm 1 mps 755 mmHg 82%
    09:00 +13°C° 0.1 mm 1 mps 755 mmHg 80%
    10:00 +13°C° 0 mm 1 mps 755 mmHg 78%
    11:00 +14°C° 0 mm 1 mps 754 mmHg 76%
    12:00 +14°C° 0 mm 1 mps 754 mmHg 74%
    13:00 +14°C° 0.1 mm 1 mps 754 mmHg 75%
    14:00 +14°C° 0.1 mm 1 mps 754 mmHg 75%
    15:00 +13°C° 0.1 mm 0 mps 754 mmHg 75%
    16:00 +13°C° 0.2 mm 0 mps 754 mmHg 79%
    17:00 +12°C° 0.2 mm 0 mps 754 mmHg 83%
    18:00 +12°C° 0.2 mm 0 mps 754 mmHg 88%
    19:00 +12°C° 0.1 mm 1 mps 754 mmHg 88%
    20:00 +12°C° 0.1 mm 1 mps 754 mmHg 89%
    21:00 +12°C° 0.1 mm 1 mps 754 mmHg 90%
    22:00 +12°C° 0.1 mm 1 mps 754 mmHg 91%
    23:00 +12°C° 0.1 mm 1 mps 753 mmHg 91%
    Show more